Weather in Moshny

Ukraine / Cherkassi District     49°31′04″N   31°44′11″E
temp.,
°C
wind,
m/s
gust,
m/s
humid.,
%
clouds,
%
prec.,
mm/h
press.,
hPa
HPBL,
m
12 april, mon
mon1200:00+8ne2258100 0.0 102629
03:00+6nne3366100 0.0 102544
06:00+5nne3571100 0.0 102474
09:00+9ne3662100 0.0 1023341
12:00+7nne348489 0.3 1023304
15:00+11ne2372100 0.3 1022505
18:00+10wnw2379100 0.0 102168
21:00+9wnw2287100 0.1 102229
13 april, tue
tue1300:00+9nw2287100 0.0 102140
03:00+9wnw1190100 0.0 102018
06:00+9w1194100 0.3 102019
09:00+9ssw1294100 0.9 102084
12:00+10s2392100 0.3 1020183
15:00+11sse3583100 0.3 1020522
18:00+10sse368697 0.0 1019444
21:00+9se119095 0.0 102011
14 april, wed
wed1400:00+9sse239147 0.0 101966
03:00+7sse22935 0.0 101818
06:00+6s229339 0.0 101822
09:00+10sse357335 0.0 1017435
12:00+15s47525 0.0 10161489
15:00+14s4554100 0.1 10161087
18:00+14s2560100 0.1 1015237
21:00+11ese2271100 0.1 101636
15 april, thu
thu1500:00+10e1176100 0.0 101511
03:00+9ene2479100 0.0 101567
06:00+9e2279100 0.0 101439
09:00+11sse2471100 0.0 1015279
12:00+13e2261100 0.0 1014690
15:00+15sse125512 0.0 10131020
18:00+15ne225427 0.1 10121207
21:00+11nne2281100 0.1 101238
16 april, fri
fri1600:00+10nne2391100 0.3 101285
03:00+10nne2390100 1.1 1011122
06:00+9nnw2590100 0.6 1011202
09:00+9nnw2393100 1.9 1011191
12:00+10nw2289100 1.5 1012336
15:00+13wnw336896 2.5 10111047
18:00+11w238289 0.4 1012290
21:00+9wnw239333 0.6 101361